Point Lay, AK

9:57 PM AKST on February 20, 2017 (GMT -0900)
Point Lay

Weather History for PPIZ - January, 2013

Change the Weather History Date:

Wednesday, January 9, 2013

  Actual Average Record
Temperature  
Mean Temperature -16 °F -  
Max Temperature -13 °F -5 °F 21 °F (2017)
Min Temperature -20 °F -14 °F -41 °F (2008)
Degree Days  
Heating Degree Days 82    
Moisture  
Dew Point -23 °F    
Average Humidity 74    
Maximum Humidity 79    
Minimum Humidity 70    
Precipitation  
Precipitation 0.00 in - - ()
Sea Level Pressure  
Sea Level Pressure 30.11 in    
Wind  
Wind Speed 11 mph (NE)    
Max Wind Speed 18 mph    
Max Gust Speed -    
Averages and records for this station are not official NWS values.
T = Trace of Precipitation, MM = Missing Value Source: NWS Daily Summary

Daily Weather History Graph

Daily Weather History Graph

Search for Another Location

Airport or City:

Trip Planner

Search our weather history database for the weather conditions in past years. The results will help you decide how hot, cold, wet, or windy it might be!

Date:

Astronomy

Jan. 09, 2013 Rise Set
Actual Time 1:26 PM AKST 2:31 PM AKST
Civil Twilight 11:19 AM AKST 4:39 PM AKST
Nautical Twilight 9:45 AM AKST 6:14 PM AKST
Astronomical Twilight 8:29 AM AKST 7:29 PM AKST
Moon No Moon Rise No Moon Set
Length of Visible Light 5h 19m
Length of Day
1h 04m
Waning Crescent, 5% of the Moon is Illuminated
Jan 9
Waning Crescent
Jan 11
New
Jan 18
First Quarter
Jan 26
Full
Feb 3
Last Quarter

Hourly Weather History & Observations

Time (AKST) Temp. Windchill Dew Point Humidity Pressure Visibility Wind Dir Wind Speed Gust Speed Precip Events Conditions
12:56 AM -13.0 °F -34.3 °F -17.9 °F 79% 30.14 in - NE 12.7 mph - N/A   Mostly Cloudy
1:25 AM -13.0 °F -34.3 °F -18.4 °F 77% 30.13 in - ENE 12.7 mph - N/A   Clear
1:56 AM -13.9 °F -31.1 °F -19.8 °F 75% 30.16 in - ENE 8.1 mph - N/A   Clear
2:56 AM -14.8 °F -33.5 °F -20.2 °F 77% 30.15 in - NE 9.2 mph - N/A   Clear
3:56 AM -15.0 °F -33.7 °F -19.8 °F 79% 30.16 in - NE 9.2 mph - N/A   Clear
4:56 AM -13.9 °F -33.5 °F -18.9 °F 78% 30.16 in - ENE 10.4 mph - N/A   Mostly Cloudy
5:56 AM -14.8 °F -34.6 °F -20.2 °F 77% 30.15 in - ENE 10.4 mph - N/A   Clear
6:56 AM -15.9 °F -32.1 °F -22.0 °F 74% 30.16 in - ENE 6.9 mph - N/A   Clear
7:56 AM -15.9 °F -34.8 °F -22.0 °F 74% 30.15 in - NE 9.2 mph - N/A   Clear
8:56 AM -16.6 °F -39.8 °F -23.8 °F 70% 30.14 in - NE 13.8 mph - N/A   Clear
9:56 AM -17.9 °F -35.9 °F -24.0 °F 74% 30.15 in - NE 8.1 mph - N/A   Clear
10:56 AM -17.0 °F -39.3 °F -22.9 °F 74% 30.15 in - ENE 12.7 mph - N/A   Clear
11:56 AM -18.4 °F -41.2 °F -23.8 °F 76% 30.14 in - ENE 12.7 mph - N/A   Clear
12:56 PM -18.9 °F -37.2 °F -24.9 °F 74% 30.16 in - ENE 8.1 mph - N/A   Clear
1:56 PM -18.9 °F -38.6 °F -26.0 °F 70% 30.14 in - ENE 9.2 mph - N/A   Clear
2:56 PM -20.2 °F - -25.6 °F 76% 30.12 in - Calm Calm - N/A   Clear
3:56 PM -19.8 °F -40.9 °F -26.0 °F 73% 30.11 in - NE 10.4 mph - N/A   Clear
4:56 PM -19.8 °F -40.9 °F -26.0 °F 73% 30.10 in - ENE 10.4 mph - N/A   Clear
5:56 PM -20.2 °F -47.5 °F -25.6 °F 76% 30.06 in - NE 18.4 mph - N/A   Clear
6:56 PM -18.9 °F -45.2 °F -24.9 °F 74% 30.06 in - NE 17.3 mph - N/A   Clear
7:56 PM -19.8 °F -42.0 °F -26.0 °F 73% 30.06 in - NE 11.5 mph - N/A   Clear
8:56 PM -20.2 °F -46.0 °F -25.6 °F 76% 30.03 in - NE 16.1 mph - N/A   Clear
9:56 PM -19.8 °F -44.8 °F -26.0 °F 73% 30.03 in - NE 15.0 mph - N/A   Clear
10:56 PM -18.9 °F -45.2 °F -26.0 °F 70% 30.02 in - NE 17.3 mph - N/A   Clear
11:56 PM -18.4 °F -44.5 °F -25.6 °F 70% 30.02 in - ENE 17.3 mph - N/A   Clear